Regional Weather Roundup
Issued by NWS

Home | Current Version | Previous Version | Graphics & Text | Print | Product List | Glossary On
Versions: 1 2 3 4 5 6 7 8 9 10 11 12 13 14 15 16 17 18 19 20 21 22 23 24 25 26 27 28 29 30 31 32 33 34 35 36 37 38 39 40 41 42 43 44 45 46 47 48 49 50
482
ASUS43 KLMK 270102
RWRKY
KENTUCKY REGIONAL WEATHER ROUNDUP
NATIONAL WEATHER SERVICE LOUISVILLE KY
900 PM EDT WED JUL 26 2017

NOTE "FAIR" INDICATES FEW OR NO CLOUDS BELOW 12,000 FEET
WITH NO SIGNIFICANT WEATHER AND/OR OBSTRUCTIONS TO VISIBILITY.

KYZ001>023-026-027-061>063-070>075-270200-
WESTERN AND SOUTH CENTRAL KENTUCKY

CITY           SKY/WX    TMP DP  RH WIND       PRES   REMARKS
PADUCAH        MOCLDY    86  73  65 S5        29.99R HX  93
HENDERSON      CLOUDY    77  73  87 S3        30.00S
OWENSBORO      CLOUDY    80  74  81 SE5       30.02R
HOPKINSVILLE   MOCLDY    86  75  69 CALM      30.02R HX  96
BOWLING GREEN  CLOUDY    89  76  65 S7        30.03R HX 100
GLASGOW        NOT AVBL
$$

KYZ024-025-028>034-038-045-046-053-270200-
NORTH CENTRAL KENTUCKY

CITY           SKY/WX    TMP DP  RH WIND       PRES   REMARKS
LOUISVILLE/SDF CLOUDY    88  73  61 S9        29.99F HX  95
LOUISVILLE/LOU PTCLDY    87  75  67 S7        30.00F HX  96
FORT KNOX      PTCLDY    80  71  72 W6        30.01S
$$

KYZ035>037-039>044-047>052-055>060-089>105-270200-
NORTHEAST KENTUCKY

CITY           SKY/WX    TMP DP  RH WIND       PRES   REMARKS
LEXINGTON      CLOUDY    84  68  58 CALM      30.05R
COVINGTON      CLOUDY    79  72  79 S5        30.04R
FRANKFORT      CLOUDY    84  70  62 SE5       30.02R
$$

KYZ054-064>069-076>088-106>120-270200-
SOUTHEAST KENTUCKY

CITY           SKY/WX    TMP DP  RH WIND       PRES   REMARKS
JACKSON        CLEAR     80  67  64 CALM      30.09R
LONDON         PTCLDY    82  69  64 SE3       30.08R
SOMERSET       CLOUDY    82  68  61 CALM      30.07S
MIDDLESBORO    CLEAR     79  73  81 W5        30.09S
MONTICELLO     CLEAR     76  75  97 CALM      30.08R
$$





USA.gov is the U.S. government's official web portal to all federal, state and local government web resources and services.